Regional Weather Roundup
Issued by NWS

Home | Current Version | Previous Version | Graphics & Text | Print | Product List | Glossary On
Versions: 1 2 3 4 5 6 7 8 9 10 11 12 13 14 15 16 17 18 19 20 21 22 23 24 25 26 27 28 29 30 31 32 33 34 35 36 37 38 39 40 41 42 43 44 45 46 47 48 49 50
000
ASUS43 KFSD 110002
RWRSD

WEATHER ROUNDUP FOR SOUTH DAKOTA
NATIONAL WEATHER SERVICE SIOUX FALLS SD
700 PM CDT THU JUL 10 2014

NOTE: "FAIR" INDICATES FEW OR NO CLOUDS BELOW 12,000 FEET WITH NO
SIGNIFICANT WEATHER AND/OR OBSTRUCTIONS TO VISIBILITY.


SDZ001>005-009-010-012>017-110100-
NORTHWEST AND NORTH CENTRAL SOUTH DAKOTA

CITY           SKY/WX    TMP DP  RH WIND       PRES   REMARKS
BUFFALO          N/A     85  66  53 S14       29.76S
FAITH            N/A     81  68  64 S12       29.82F
MOBRIDGE       MOSUNNY   80  67  64 S10       29.78F
$$

SDZ012>016-024>037-041>051-057-063-072>074-110100-
SOUTHWEST AND SOUTH CENTRAL SOUTH DAKOTA

CITY           SKY/WX    TMP DP  RH WIND       PRES   REMARKS
RAPID CTY ARPT PTSUNNY   77  62  59 SW5       29.85F
PIERRE         PTSUNNY   83  69  62 SE12      29.73F
CUSTER         PTSUNNY   74  56  53 E3        30.01F
ELLSWORTH AFB  PTSUNNY   79  61  53 CALM      29.85F
PHILIP         CLOUDY    87  66  49 CALM      29.77F
PINE RIDGE     MOSUNNY   83  66  56 NE12      29.86R
WINNER         FAIR      89  68  49 S16G24    29.80S
$$

SDZ004>011-016>023-039-040-110100-
NORTHEAST SOUTH DAKOTA

CITY           SKY/WX    TMP DP  RH WIND       PRES   REMARKS
ABERDEEN       PTSUNNY   81  66  60 S17G24    29.81F
WATERTOWN      CLOUDY    76  65  68 S16       29.87S
SISSETON         N/A     74  66  76 S13       29.84F
$$

SDZ017-020-022-023-036>040-048>070-110100-
SOUTHEAST SOUTH DAKOTA

CITY           SKY/WX    TMP DP  RH WIND       PRES   REMARKS
SIOUX FALLS    CLOUDY    81  64  56 S14G26    29.91S
HURON          LGT RAIN  76  68  76 SE6       29.82R
CHAMBERLAIN    PTSUNNY   85  71  63 S12G17    29.81S
MITCHELL       PTSUNNY   84  68  58 S17       29.84F
YANKTON        MOSUNNY   82  68  61 S18G24    29.89F
$$

ABBREVIATIONS USED IN REMARKS
   TC - TEMPERATURE IN CELSIUS
  WCI - WIND CHILL INDEX
   HX - HEAT INDEX
  VSB - VISIBILITY



USA.gov is the U.S. government's official web portal to all federal, state and local government web resources and services.